Aérodrome :
LOGIN :

S'inscrire | Disclaimer

   EN    FR    IT 

 










Légende :    VFR   VFR Marginal   IFR   IFR Intensif   IFR Très Intensif
Visi : 
Plafond : 
>= 8 km
>= 3000ft
5 à 8 km
1000 à 3000 ft
1500m à 5 km
500 à 1000 ft
800 à 1500m
200 à 500 ft
< 800m
< 200 ft
Symboles :   Orages  Brouillard  Fortes neiges  Fortes précipitations  Vent > 20 kt
SIGMETs :   Divers  Orages  Givrage  Turbulence  Onde Orograph.  Cendres Volcan.







- Altitude de l'aérodrome : 1046 ft
- Code IATA : NUE


EDDN - Nuremberg

DERNIER METAR :
  • 220150Z 29006KT CAVOK 09/04 Q1022

METARs EXPIRÉS :
  • 220120Z 31009KT CAVOK 11/03 Q1022
  • 220050Z 30008KT CAVOK 11/03 Q1021
  • 220020Z 30005KT CAVOK 10/03 Q1021
  • 212350Z 30005KT CAVOK 11/03 Q1021
  • 212320Z 31006KT CAVOK 12/03 Q1021

TAF TAF EDDN
Valide du 22 à 00h jusqu'au 23 à 00h UTC


212300Z 2200/2224 30005KT CAVOK
BECMG 2205/2207 30010KT
BECMG 2208/2210 32015G25KT
BECMG 2217/2219 28005KT
Pas de NOTAMs connus pour ce terrain.



MET'MAP, la Météo Aéronautique d'un coup d'oeil ! - Copyright ORBIFLY Décembre 2007 - Disclaimer

ORBIFLY MET'MAP TEAM :

Programmation & Développement : Alexandra Zaïnal
Conception & Développement : Baudouin d'Aumeries
Co-Programmation & Développement : Marc-Olivier Méhu
Soutien technique & logistique : Manuel Goepfert

Contact : metmap@orbifly.com




SOURCES & CREDITS :

   NOAA